Time,TemperatureF,DewpointF,PressureIn,WindDirection,WindDirectionDegrees,WindSpeedMPH,WindSpeedGustMPH,Humidity,HourlyPrecipIn,Conditions,Clouds,dailyrainin,SoftwareType,DateUTC
2013-08-02 00:00:00,71.5,66.3,30.03,NE,45,0.0,0.0,84,0.00,,,0.00,WUHU216HW,2013-08-02 04:00:00,
2013-08-02 00:01:00,71.5,66.3,30.03,NE,45,0.0,0.0,84,0.00,,,0.00,WUHU216HW,2013-08-02 04:01:00,
2013-08-02 00:07:00,71.5,66.3,30.02,NE,45,0.0,0.0,84,0.00,,,0.00,WUHU216HW,2013-08-02 04:07:00,
2013-08-02 00:12:00,71.3,66.2,30.03,NE,45,0.0,0.0,84,0.00,,,0.00,WUHU216HW,2013-08-02 04:12:00,
2013-08-02 00:16:00,71.3,66.2,30.03,NE,45,0.0,0.0,84,0.00,,,0.00,WUHU216HW,2013-08-02 04:16:00,
2013-08-02 00:21:00,71.3,66.2,30.03,NNE,23,0.0,0.0,84,0.00,,,0.00,WUHU216HW,2013-08-02 04:21:00,
2013-08-02 00:26:00,71.3,66.2,30.03,NNE,23,0.0,0.0,84,0.00,,,0.00,WUHU216HW,2013-08-02 04:26:00,
2013-08-02 00:31:00,71.3,66.2,30.04,NNE,23,0.0,0.0,84,0.00,,,0.00,WUHU216HW,2013-08-02 04:31:00,
2013-08-02 00:36:00,71.3,66.2,30.03,NNE,23,0.0,0.0,84,0.00,,,0.00,WUHU216HW,2013-08-02 04:36:00,
2013-08-02 00:41:00,71.3,66.2,30.03,NNE,23,0.0,0.0,84,0.00,,,0.00,WUHU216HW,2013-08-02 04:41:00,
2013-08-02 00:46:00,70.9,65.8,30.03,NNE,23,0.0,0.0,84,0.00,,,0.00,WUHU216HW,2013-08-02 04:46:00,
2013-08-02 00:51:00,70.9,66.2,30.03,NNE,23,0.0,0.0,85,0.00,,,0.00,WUHU216HW,2013-08-02 04:51:00,
2013-08-02 00:56:00,70.6,65.8,30.03,NNE,23,0.0,0.0,85,0.00,,,0.00,WUHU216HW,2013-08-02 04:56:00,
2013-08-02 01:01:00,70.4,65.6,30.03,NNE,23,0.0,0.0,85,0.00,,,0.00,WUHU216HW,2013-08-02 05:01:00,
2013-08-02 01:06:00,70.2,65.4,30.03,NNE,23,0.0,0.0,85,0.00,,,0.00,WUHU216HW,2013-08-02 05:06:00,
2013-08-02 01:11:00,70.2,65.4,30.03,NNE,23,0.0,0.0,85,0.00,,,0.00,WUHU216HW,2013-08-02 05:11:00,
2013-08-02 01:16:00,70.2,65.8,30.03,NNE,23,0.0,0.0,86,0.00,,,0.00,WUHU216HW,2013-08-02 05:16:00,
2013-08-02 01:21:00,70.2,65.8,30.03,NNE,23,0.0,0.0,86,0.00,,,0.00,WUHU216HW,2013-08-02 05:21:00,
2013-08-02 01:26:00,70.2,65.8,30.03,NNE,23,0.0,0.0,86,0.00,,,0.00,WUHU216HW,2013-08-02 05:26:00,
2013-08-02 01:31:00,70.2,65.8,30.03,NNE,23,0.0,0.0,86,0.00,,,0.00,WUHU216HW,2013-08-02 05:31:00,
2013-08-02 01:36:00,70.2,65.8,30.03,NNE,23,0.0,0.0,86,0.00,,,0.00,WUHU216HW,2013-08-02 05:36:00,
2013-08-02 01:41:00,70.2,65.8,30.03,NNE,23,0.0,0.0,86,0.00,,,0.00,WUHU216HW,2013-08-02 05:41:00,
2013-08-02 01:46:00,70.2,65.8,30.03,NNE,23,0.0,0.0,86,0.00,,,0.00,WUHU216HW,2013-08-02 05:46:00,
2013-08-02 01:51:00,70.2,65.8,30.03,NNE,23,0.0,0.0,86,0.00,,,0.00,WUHU216HW,2013-08-02 05:51:00,
2013-08-02 01:56:00,70.2,65.8,30.03,NNE,23,0.0,0.0,86,0.00,,,0.00,WUHU216HW,2013-08-02 05:56:00,
2013-08-02 02:01:00,70.0,65.6,30.03,NNE,23,0.0,0.0,86,0.00,,,0.00,WUHU216HW,2013-08-02 06:01:00,
2013-08-02 02:06:00,69.8,65.4,30.03,NNE,23,0.0,0.0,86,0.00,,,0.00,WUHU216HW,2013-08-02 06:06:00,
2013-08-02 02:11:00,69.8,65.4,30.02,NNE,23,0.0,0.0,86,0.00,,,0.00,WUHU216HW,2013-08-02 06:11:00,
2013-08-02 02:16:00,69.8,65.8,30.02,NNE,23,0.0,0.0,87,0.00,,,0.00,WUHU216HW,2013-08-02 06:16:00,
2013-08-02 02:21:00,69.8,65.8,30.02,NNE,23,0.0,0.0,87,0.00,,,0.00,WUHU216HW,2013-08-02 06:21:00,
2013-08-02 02:26:00,69.8,65.8,30.02,NNE,23,0.0,0.0,87,0.00,,,0.00,WUHU216HW,2013-08-02 06:26:00,
2013-08-02 02:31:00,69.5,65.4,30.02,NNE,23,0.0,0.0,87,0.00,,,0.00,WUHU216HW,2013-08-02 06:31:00,
2013-08-02 02:36:00,69.5,65.4,30.01,NNE,23,0.0,0.0,87,0.00,,,0.00,WUHU216HW,2013-08-02 06:36:00,
2013-08-02 02:41:00,69.5,65.4,30.01,NNE,23,0.0,0.0,87,0.00,,,0.00,WUHU216HW,2013-08-02 06:41:00,
2013-08-02 02:46:00,69.5,65.4,30.02,NNE,23,0.0,0.0,87,0.00,,,0.00,WUHU216HW,2013-08-02 06:46:00,
2013-08-02 02:51:00,69.5,65.4,30.02,East,90,1.1,1.1,87,0.00,,,0.00,WUHU216HW,2013-08-02 06:51:00,
2013-08-02 02:56:00,69.3,65.3,30.01,East,90,0.0,1.1,87,0.00,,,0.00,WUHU216HW,2013-08-02 06:56:00,
2013-08-02 03:01:00,69.1,65.1,30.01,East,90,0.0,1.1,87,0.00,,,0.00,WUHU216HW,2013-08-02 07:01:00,
2013-08-02 03:06:00,69.1,65.1,30.01,East,90,0.0,0.0,87,0.00,,,0.00,WUHU216HW,2013-08-02 07:06:00,
2013-08-02 03:11:00,69.1,65.1,30.01,East,90,0.0,0.0,87,0.00,,,0.00,WUHU216HW,2013-08-02 07:11:00,
2013-08-02 03:16:00,69.1,65.1,30.01,East,90,0.0,0.0,87,0.00,,,0.00,WUHU216HW,2013-08-02 07:16:00,
2013-08-02 03:21:00,69.1,65.1,30.01,East,90,0.0,0.0,87,0.00,,,0.00,WUHU216HW,2013-08-02 07:21:00,
2013-08-02 03:26:00,69.1,65.1,30.01,East,90,0.0,0.0,87,0.00,,,0.00,WUHU216HW,2013-08-02 07:26:00,
2013-08-02 03:31:00,68.9,64.9,30.01,East,90,0.0,0.0,87,0.00,,,0.00,WUHU216HW,2013-08-02 07:31:00,
2013-08-02 03:36:00,68.8,65.1,30.02,East,90,0.0,0.0,88,0.00,,,0.00,WUHU216HW,2013-08-02 07:36:00,
2013-08-02 03:41:00,68.4,64.7,30.02,East,90,0.0,0.0,88,0.00,,,0.00,WUHU216HW,2013-08-02 07:41:00,
2013-08-02 03:46:00,68.4,64.7,30.02,North,0,0.0,0.0,88,0.00,,,0.00,WUHU216HW,2013-08-02 07:46:00,
2013-08-02 03:52:00,68.2,64.5,30.03,North,0,0.0,0.0,88,0.00,,,0.00,WUHU216HW,2013-08-02 07:52:00,
2013-08-02 03:56:00,68.2,64.5,30.03,North,0,0.0,0.0,88,0.00,,,0.00,WUHU216HW,2013-08-02 07:56:00,
2013-08-02 04:02:00,68.2,64.5,30.03,North,0,0.0,0.2,88,0.00,,,0.00,WUHU216HW,2013-08-02 08:02:00,
2013-08-02 04:07:00,68.2,64.5,30.03,North,0,0.0,0.2,88,0.00,,,0.00,WUHU216HW,2013-08-02 08:07:00,
2013-08-02 04:12:00,68.4,65.0,30.02,North,0,0.0,0.0,89,0.00,,,0.00,WUHU216HW,2013-08-02 08:12:00,
2013-08-02 04:17:00,68.4,65.0,30.02,North,0,0.0,0.0,89,0.00,,,0.00,WUHU216HW,2013-08-02 08:17:00,
2013-08-02 04:22:00,68.4,65.0,30.02,North,0,0.0,0.0,89,0.00,,,0.00,WUHU216HW,2013-08-02 08:22:00,
2013-08-02 04:27:00,68.6,65.2,30.02,North,0,0.0,0.0,89,0.00,,,0.00,WUHU216HW,2013-08-02 08:27:00,
2013-08-02 04:32:00,68.6,65.2,30.02,ENE,68,0.4,0.7,89,0.00,,,0.00,WUHU216HW,2013-08-02 08:32:00,
2013-08-02 04:37:00,68.4,64.7,30.02,ENE,68,0.0,0.7,88,0.00,,,0.00,WUHU216HW,2013-08-02 08:37:00,
2013-08-02 04:42:00,68.4,64.7,30.02,ENE,68,0.0,0.7,88,0.00,,,0.00,WUHU216HW,2013-08-02 08:42:00,
2013-08-02 04:47:00,68.0,64.4,30.02,ENE,68,0.0,0.2,88,0.00,,,0.00,WUHU216HW,2013-08-02 08:47:00,
2013-08-02 04:52:00,68.0,64.4,30.02,ENE,68,0.0,0.2,88,0.00,,,0.00,WUHU216HW,2013-08-02 08:52:00,
2013-08-02 04:57:00,68.0,64.4,30.03,ENE,68,0.0,0.0,88,0.00,,,0.00,WUHU216HW,2013-08-02 08:57:00,
2013-08-02 05:02:00,67.9,64.4,30.03,ENE,68,0.0,0.7,89,0.00,,,0.00,WUHU216HW,2013-08-02 09:02:00,
2013-08-02 05:07:00,67.9,64.4,30.03,ENE,68,0.0,0.7,89,0.00,,,0.00,WUHU216HW,2013-08-02 09:07:00,
2013-08-02 05:12:00,67.9,64.4,30.03,ENE,68,0.0,0.0,89,0.00,,,0.00,WUHU216HW,2013-08-02 09:12:00,
2013-08-02 05:17:00,67.9,64.4,30.03,ENE,68,0.0,0.0,89,0.00,,,0.00,WUHU216HW,2013-08-02 09:17:00,
2013-08-02 05:22:00,67.9,64.4,30.03,ENE,68,0.0,0.0,89,0.00,,,0.00,WUHU216HW,2013-08-02 09:22:00,
2013-08-02 05:27:00,67.9,64.4,30.03,ENE,68,0.0,0.0,89,0.00,,,0.00,WUHU216HW,2013-08-02 09:27:00,
2013-08-02 05:32:00,67.9,64.4,30.03,ENE,68,0.0,0.0,89,0.00,,,0.00,WUHU216HW,2013-08-02 09:32:00,
2013-08-02 05:37:00,68.0,64.6,30.03,ENE,68,0.0,0.0,89,0.00,,,0.00,WUHU216HW,2013-08-02 09:37:00,
2013-08-02 05:42:00,67.9,64.4,30.03,ENE,68,0.0,0.0,89,0.00,,,0.00,WUHU216HW,2013-08-02 09:42:00,
2013-08-02 05:47:00,67.9,64.4,30.03,ENE,68,0.0,0.0,89,0.00,,,0.00,WUHU216HW,2013-08-02 09:47:00,
2013-08-02 05:52:00,67.7,64.3,30.03,ENE,68,0.0,0.0,89,0.00,,,0.00,WUHU216HW,2013-08-02 09:52:00,
2013-08-02 05:57:00,67.7,64.3,30.03,ENE,68,0.0,0.2,89,0.00,,,0.00,WUHU216HW,2013-08-02 09:57:00,
2013-08-02 06:02:00,67.9,64.8,30.03,ENE,68,0.0,0.2,90,0.00,,,0.00,WUHU216HW,2013-08-02 10:02:00,
2013-08-02 06:07:00,67.7,64.3,30.03,ENE,68,0.0,0.0,89,0.00,,,0.00,WUHU216HW,2013-08-02 10:07:00,
2013-08-02 06:12:00,67.7,64.3,30.03,ENE,68,0.0,0.0,89,0.00,,,0.00,WUHU216HW,2013-08-02 10:12:00,
2013-08-02 06:17:00,67.7,64.3,30.03,NNE,23,0.0,0.0,89,0.00,,,0.00,WUHU216HW,2013-08-02 10:17:00,
2013-08-02 06:22:00,67.5,64.4,30.04,NNE,23,0.0,0.0,90,0.00,,,0.00,WUHU216HW,2013-08-02 10:22:00,
2013-08-02 06:27:00,67.5,64.1,30.04,NNE,23,0.0,0.0,89,0.00,,,0.00,WUHU216HW,2013-08-02 10:27:00,
2013-08-02 06:32:00,67.3,63.9,30.04,NNE,23,0.0,0.0,89,0.00,,,0.00,WUHU216HW,2013-08-02 10:32:00,
2013-08-02 06:37:00,67.3,63.9,30.04,NNE,23,0.0,0.0,89,0.00,,,0.00,WUHU216HW,2013-08-02 10:37:00,
2013-08-02 06:42:00,67.3,64.3,30.04,North,0,0.0,0.0,90,0.00,,,0.00,WUHU216HW,2013-08-02 10:42:00,
2013-08-02 06:47:00,67.3,64.3,30.04,North,0,0.0,0.4,90,0.00,,,0.00,WUHU216HW,2013-08-02 10:47:00,
2013-08-02 06:52:00,67.5,64.4,30.05,North,0,0.4,0.4,90,0.00,,,0.00,WUHU216HW,2013-08-02 10:52:00,
2013-08-02 06:57:00,67.5,64.4,30.05,North,0,0.0,0.4,90,0.00,,,0.00,WUHU216HW,2013-08-02 10:57:00,
2013-08-02 07:02:00,67.3,64.3,30.05,North,0,0.0,0.4,90,0.00,,,0.00,WUHU216HW,2013-08-02 11:02:00,
2013-08-02 07:07:00,67.3,64.3,30.05,NE,45,0.0,0.0,90,0.00,,,0.00,WUHU216HW,2013-08-02 11:07:00,
2013-08-02 07:12:00,67.1,64.1,30.05,NE,45,0.0,0.0,90,0.00,,,0.00,WUHU216HW,2013-08-02 11:12:00,
2013-08-02 07:17:00,67.0,63.9,30.05,NE,45,0.0,0.0,90,0.00,,,0.00,WUHU216HW,2013-08-02 11:17:00,
2013-08-02 07:22:00,67.1,64.1,30.05,NE,45,0.0,0.0,90,0.00,,,0.00,WUHU216HW,2013-08-02 11:22:00,
2013-08-02 07:27:00,67.0,63.9,30.06,ENE,68,0.0,0.9,90,0.00,,,0.00,WUHU216HW,2013-08-02 11:27:00,
2013-08-02 07:32:00,67.1,64.1,30.05,ENE,68,0.0,0.9,90,0.00,,,0.00,WUHU216HW,2013-08-02 11:32:00,
2013-08-02 07:37:00,67.0,63.9,30.05,ENE,68,0.0,0.0,90,0.00,,,0.00,WUHU216HW,2013-08-02 11:37:00,
2013-08-02 07:42:00,67.0,63.9,30.06,ENE,68,0.0,0.2,90,0.00,,,0.00,WUHU216HW,2013-08-02 11:42:00,
2013-08-02 07:47:00,67.0,63.9,30.06,ENE,68,0.0,0.2,90,0.00,,,0.00,WUHU216HW,2013-08-02 11:47:00,
2013-08-02 07:52:00,67.0,63.9,30.06,ENE,68,0.4,0.4,90,0.00,,,0.00,WUHU216HW,2013-08-02 11:52:00,
2013-08-02 07:57:00,66.8,63.7,30.06,ENE,68,0.0,0.7,90,0.00,,,0.00,WUHU216HW,2013-08-02 11:57:00,
2013-08-02 08:02:00,67.0,63.9,30.06,ENE,68,0.0,0.7,90,0.00,,,0.00,WUHU216HW,2013-08-02 12:02:00,
2013-08-02 08:07:00,67.0,63.9,30.06,ENE,68,0.0,0.0,90,0.00,,,0.00,WUHU216HW,2013-08-02 12:07:00,
2013-08-02 08:12:00,67.1,64.4,30.06,ENE,68,0.0,0.0,91,0.00,,,0.00,WUHU216HW,2013-08-02 12:12:00,
2013-08-02 08:17:00,67.3,64.5,30.06,ENE,68,0.0,0.0,91,0.00,,,0.00,WUHU216HW,2013-08-02 12:17:00,
2013-08-02 08:22:00,67.3,64.5,30.06,ENE,68,0.0,0.0,91,0.00,,,0.00,WUHU216HW,2013-08-02 12:22:00,
2013-08-02 08:27:00,67.5,64.7,30.06,ENE,68,0.0,0.0,91,0.00,,,0.00,WUHU216HW,2013-08-02 12:27:00,
2013-08-02 08:32:00,67.5,64.7,30.06,ENE,68,0.0,0.0,91,0.00,,,0.00,WUHU216HW,2013-08-02 12:32:00,
2013-08-02 08:37:00,67.7,64.9,30.06,ENE,68,0.0,0.0,91,0.00,,,0.00,WUHU216HW,2013-08-02 12:37:00,
2013-08-02 08:42:00,67.9,65.1,30.06,ENE,68,0.0,0.0,91,0.00,,,0.00,WUHU216HW,2013-08-02 12:42:00,
2013-08-02 08:47:00,68.0,65.3,30.07,ENE,68,0.0,0.0,91,0.00,,,0.00,WUHU216HW,2013-08-02 12:47:00,
2013-08-02 08:52:00,68.2,65.4,30.07,ENE,68,0.0,0.0,91,0.00,,,0.00,WUHU216HW,2013-08-02 12:52:00,
2013-08-02 08:57:00,68.4,65.6,30.08,ENE,68,0.0,0.0,91,0.00,,,0.00,WUHU216HW,2013-08-02 12:57:00,
2013-08-02 09:02:00,68.4,65.6,30.08,ENE,68,0.0,0.0,91,0.00,,,0.00,WUHU216HW,2013-08-02 13:02:00,
2013-08-02 09:07:00,68.6,65.8,30.08,ENE,68,0.0,0.0,91,0.00,,,0.00,WUHU216HW,2013-08-02 13:07:00,
2013-08-02 09:12:00,68.8,66.0,30.08,ENE,68,0.0,0.0,91,0.00,,,0.00,WUHU216HW,2013-08-02 13:12:00,
2013-08-02 09:17:00,68.9,66.2,30.08,ENE,68,0.0,0.0,91,0.00,,,0.00,WUHU216HW,2013-08-02 13:17:00,
2013-08-02 09:22:00,69.1,66.3,30.08,ENE,68,0.0,0.0,91,0.00,,,0.00,WUHU216HW,2013-08-02 13:22:00,
2013-08-02 09:27:00,69.1,66.3,30.07,ENE,68,0.0,0.0,91,0.00,,,0.00,WUHU216HW,2013-08-02 13:27:00,
2013-08-02 09:32:00,69.5,66.7,30.07,ENE,68,0.0,0.0,91,0.00,,,0.00,WUHU216HW,2013-08-02 13:32:00,
2013-08-02 09:37:00,69.7,66.9,30.07,ENE,68,0.0,0.0,91,0.00,,,0.00,WUHU216HW,2013-08-02 13:37:00,
2013-08-02 09:42:00,69.8,67.1,30.08,ESE,113,0.0,0.0,91,0.00,,,0.00,WUHU216HW,2013-08-02 13:42:00,
2013-08-02 09:47:00,70.0,67.0,30.07,ESE,113,0.0,0.0,90,0.00,,,0.00,WUHU216HW,2013-08-02 13:47:00,
2013-08-02 09:52:00,70.2,67.1,30.08,ESE,113,0.0,0.0,90,0.00,,,0.00,WUHU216HW,2013-08-02 13:52:00,
2013-08-02 09:57:00,70.4,67.3,30.08,SE,135,0.0,0.0,90,0.00,,,0.00,WUHU216HW,2013-08-02 13:57:00,
2013-08-02 10:02:00,70.6,67.5,30.08,ESE,113,0.0,0.0,90,0.00,,,0.00,WUHU216HW,2013-08-02 14:02:00,
2013-08-02 10:07:00,70.9,67.5,30.08,WSW,248,0.4,1.1,89,0.00,,,0.00,WUHU216HW,2013-08-02 14:07:00,
2013-08-02 10:12:00,71.1,67.3,30.08,SSE,158,0.0,1.1,88,0.00,,,0.00,WUHU216HW,2013-08-02 14:12:00,
2013-08-02 10:17:00,71.5,67.7,30.08,North,0,0.4,1.3,88,0.00,,,0.00,WUHU216HW,2013-08-02 14:17:00,
2013-08-02 10:22:00,71.6,67.6,30.08,East,90,0.4,1.3,87,0.00,,,0.00,WUHU216HW,2013-08-02 14:22:00,
2013-08-02 10:27:00,72.0,67.6,30.08,SSE,158,0.0,2.0,86,0.00,,,0.00,WUHU216HW,2013-08-02 14:27:00,
2013-08-02 10:32:00,72.2,67.8,30.08,East,90,0.0,2.0,86,0.00,,,0.00,WUHU216HW,2013-08-02 14:32:00,
2013-08-02 10:37:00,72.4,67.6,30.08,NNW,338,0.4,1.8,85,0.00,,,0.00,WUHU216HW,2013-08-02 14:37:00,
2013-08-02 10:42:00,72.5,67.4,30.08,SSW,203,0.0,1.8,84,0.00,,,0.00,WUHU216HW,2013-08-02 14:42:00,
2013-08-02 10:47:00,72.7,67.6,30.08,NE,45,0.0,0.7,84,0.00,,,0.00,WUHU216HW,2013-08-02 14:47:00,
2013-08-02 10:52:00,72.9,67.8,30.08,SSW,203,0.0,0.9,84,0.00,,,0.00,WUHU216HW,2013-08-02 14:52:00,
2013-08-02 10:53:00,72.9,67.8,30.08,SSW,203,0.4,0.9,84,0.00,,,0.00,WUHU216HW,2013-08-02 14:53:00,
2013-08-02 10:58:00,72.9,68.1,30.08,SW,225,0.0,1.1,85,0.00,,,0.00,WUHU216HW,2013-08-02 14:58:00,
2013-08-02 11:03:00,73.1,68.3,30.08,NNW,338,0.4,1.1,85,0.00,,,0.00,WUHU216HW,2013-08-02 15:03:00,
2013-08-02 11:08:00,73.1,68.0,30.08,NW,315,0.0,0.9,84,0.00,,,0.00,WUHU216HW,2013-08-02 15:08:00,
2013-08-02 11:13:00,73.3,68.1,30.08,SE,135,1.6,1.8,84,0.00,,,0.00,WUHU216HW,2013-08-02 15:13:00,
2013-08-02 11:18:00,73.4,68.0,30.08,WSW,248,0.0,1.8,83,0.00,,,0.00,WUHU216HW,2013-08-02 15:18:00,
2013-08-02 11:23:00,73.6,68.1,30.08,West,270,0.9,1.6,83,0.00,,,0.00,WUHU216HW,2013-08-02 15:23:00,
2013-08-02 11:28:00,73.8,68.3,30.08,NNW,338,0.0,1.6,83,0.00,,,0.00,WUHU216HW,2013-08-02 15:28:00,
2013-08-02 11:33:00,73.8,68.1,30.09,SSE,158,0.0,1.8,82,0.00,,,0.00,WUHU216HW,2013-08-02 15:33:00,
2013-08-02 11:38:00,74.2,68.1,30.09,North,0,0.4,1.8,81,0.00,,,0.00,WUHU216HW,2013-08-02 15:38:00,
2013-08-02 11:43:00,74.3,67.5,30.09,NW,315,0.4,0.7,79,0.00,,,0.00,WUHU216HW,2013-08-02 15:43:00,
2013-08-02 11:48:00,74.5,66.9,30.09,WNW,293,0.4,1.6,77,0.00,,,0.00,WUHU216HW,2013-08-02 15:48:00,
2013-08-02 11:53:00,74.7,67.1,30.09,SSE,158,0.0,1.6,77,0.00,,,0.00,WUHU216HW,2013-08-02 15:53:00,
2013-08-02 11:58:00,74.9,67.2,30.09,SW,225,0.4,1.1,77,0.00,,,0.00,WUHU216HW,2013-08-02 15:58:00,
2013-08-02 12:03:00,75.1,67.4,30.09,SW,225,0.7,1.8,77,0.00,,,0.00,WUHU216HW,2013-08-02 16:03:00,
2013-08-02 12:08:00,75.4,68.1,30.09,SSE,158,0.4,1.8,78,0.00,,,0.00,WUHU216HW,2013-08-02 16:08:00,
2013-08-02 12:13:00,75.4,68.1,30.09,WSW,248,0.4,1.8,78,0.00,,,0.00,WUHU216HW,2013-08-02 16:13:00,
2013-08-02 12:18:00,75.4,67.8,30.09,North,0,0.0,1.8,77,0.00,,,0.00,WUHU216HW,2013-08-02 16:18:00,
2013-08-02 12:23:00,75.6,67.5,30.09,NW,315,1.1,1.1,76,0.00,,,0.00,WUHU216HW,2013-08-02 16:23:00,
2013-08-02 12:28:00,76.0,67.9,30.09,North,0,1.1,1.1,76,0.00,,,0.00,WUHU216HW,2013-08-02 16:28:00,
2013-08-02 12:33:00,76.1,67.7,30.09,NNE,23,0.4,1.3,75,0.00,,,0.00,WUHU216HW,2013-08-02 16:33:00,
2013-08-02 12:38:00,76.3,67.8,30.09,SE,135,1.1,1.3,75,0.00,,,0.00,WUHU216HW,2013-08-02 16:38:00,
2013-08-02 12:43:00,76.7,68.1,30.09,SE,135,0.9,1.8,75,0.00,,,0.00,WUHU216HW,2013-08-02 16:43:00,
2013-08-02 12:48:00,76.7,67.4,30.09,North,0,0.0,2.2,73,0.00,,,0.00,WUHU216HW,2013-08-02 16:48:00,
2013-08-02 12:53:00,76.7,67.4,30.08,NE,45,0.2,2.5,73,0.00,,,0.00,WUHU216HW,2013-08-02 16:53:00,
2013-08-02 12:58:00,76.9,67.6,30.09,WNW,293,0.0,2.5,73,0.00,,,0.00,WUHU216HW,2013-08-02 16:58:00,
2013-08-02 13:03:00,77.0,68.1,30.08,NNE,23,0.2,1.3,74,0.00,,,0.00,WUHU216HW,2013-08-02 17:03:00,
2013-08-02 13:08:00,77.2,67.9,30.08,North,0,0.7,2.2,73,0.00,,,0.00,WUHU216HW,2013-08-02 17:08:00,
2013-08-02 13:13:00,77.4,67.7,30.08,NW,315,0.4,2.2,72,0.00,,,0.00,WUHU216HW,2013-08-02 17:13:00,
2013-08-02 13:18:00,77.4,67.7,30.08,West,270,0.0,2.2,72,0.00,,,0.00,WUHU216HW,2013-08-02 17:18:00,
2013-08-02 13:23:00,77.4,67.7,30.08,North,0,0.4,1.1,72,0.00,,,0.00,WUHU216HW,2013-08-02 17:23:00,
2013-08-02 13:28:00,77.6,68.2,30.08,WSW,248,0.7,1.1,73,0.00,,,0.00,WUHU216HW,2013-08-02 17:28:00,
2013-08-02 13:33:00,77.8,68.4,30.08,NNW,338,1.1,2.0,73,0.00,,,0.00,WUHU216HW,2013-08-02 17:33:00,
2013-08-02 13:38:00,77.8,68.1,30.08,North,0,0.7,2.0,72,0.00,,,0.00,WUHU216HW,2013-08-02 17:38:00,
2013-08-02 13:43:00,77.9,68.2,30.08,NNE,23,0.4,1.8,72,0.00,,,0.00,WUHU216HW,2013-08-02 17:43:00,
2013-08-02 13:48:00,78.3,68.5,30.08,NNW,338,0.9,1.8,72,0.00,,,0.00,WUHU216HW,2013-08-02 17:48:00,
2013-08-02 13:53:00,78.5,68.3,30.08,West,270,1.1,2.2,71,0.00,,,0.00,WUHU216HW,2013-08-02 17:53:00,
2013-08-02 13:58:00,78.5,68.7,30.08,North,0,0.2,2.5,72,0.00,,,0.00,WUHU216HW,2013-08-02 17:58:00,
2013-08-02 14:03:00,78.7,68.5,30.08,NNW,338,0.4,2.5,71,0.00,,,0.00,WUHU216HW,2013-08-02 18:03:00,
2013-08-02 14:08:00,78.8,68.2,30.08,NNE,23,1.3,2.0,70,0.00,,,0.00,WUHU216HW,2013-08-02 18:08:00,
2013-08-02 14:13:00,78.8,68.2,30.08,NNW,338,0.4,2.0,70,0.00,,,0.00,WUHU216HW,2013-08-02 18:13:00,
2013-08-02 14:18:00,79.2,68.6,30.08,NNW,338,0.7,1.6,70,0.00,,,0.00,WUHU216HW,2013-08-02 18:18:00,
2013-08-02 14:23:00,79.2,68.6,30.08,NNW,338,0.0,1.6,70,0.00,,,0.00,WUHU216HW,2013-08-02 18:23:00,
2013-08-02 14:28:00,79.4,68.8,30.08,West,270,1.3,1.8,70,0.00,,,0.00,WUHU216HW,2013-08-02 18:28:00,
2013-08-02 14:33:00,79.0,68.4,30.08,West,270,0.4,1.8,70,0.00,,,0.00,WUHU216HW,2013-08-02 18:33:00,
2013-08-02 14:38:00,78.8,68.2,30.08,North,0,0.4,1.6,70,0.00,,,0.00,WUHU216HW,2013-08-02 18:38:00,
2013-08-02 14:43:00,78.8,68.2,30.08,NNW,338,0.4,1.3,70,0.00,,,0.00,WUHU216HW,2013-08-02 18:43:00,
2013-08-02 14:48:00,79.2,67.7,30.07,NNW,338,1.1,2.5,68,0.00,,,0.00,WUHU216HW,2013-08-02 18:48:00,
2013-08-02 14:53:00,79.4,67.9,30.08,NW,315,0.7,2.5,68,0.00,,,0.00,WUHU216HW,2013-08-02 18:53:00,
2013-08-02 14:58:00,79.6,67.6,30.07,WNW,293,1.1,1.6,67,0.00,,,0.00,WUHU216HW,2013-08-02 18:58:00,
2013-08-02 15:03:00,79.6,67.6,30.07,NNW,338,0.9,1.3,67,0.00,,,0.00,WUHU216HW,2013-08-02 19:03:00,
2013-08-02 15:08:00,79.7,67.3,30.07,NE,45,0.0,1.1,66,0.00,,,0.00,WUHU216HW,2013-08-02 19:08:00,
2013-08-02 15:13:00,80.1,67.2,30.07,North,0,0.9,1.1,65,0.00,,,0.00,WUHU216HW,2013-08-02 19:13:00,
2013-08-02 15:18:00,80.3,67.4,30.07,West,270,0.0,1.1,65,0.00,,,0.00,WUHU216HW,2013-08-02 19:18:00,
2013-08-02 15:23:00,80.3,66.5,30.07,North,0,1.6,1.8,63,0.00,,,0.00,WUHU216HW,2013-08-02 19:23:00,
2013-08-02 15:28:00,80.3,67.0,30.07,NNW,338,0.4,1.8,64,0.00,,,0.00,WUHU216HW,2013-08-02 19:28:00,
2013-08-02 15:33:00,80.3,67.0,30.07,NW,315,0.4,2.9,64,0.00,,,0.00,WUHU216HW,2013-08-02 19:33:00,
2013-08-02 15:38:00,80.5,67.6,30.07,WNW,293,0.4,2.9,65,0.00,,,0.00,WUHU216HW,2013-08-02 19:38:00,
2013-08-02 15:43:00,80.6,67.3,30.07,NNW,338,0.4,1.1,64,0.00,,,0.00,WUHU216HW,2013-08-02 19:43:00,
2013-08-02 15:48:00,80.8,67.5,30.07,WNW,293,0.0,1.8,64,0.00,,,0.00,WUHU216HW,2013-08-02 19:48:00,
2013-08-02 15:53:00,81.0,67.7,30.07,SSE,158,0.9,1.8,64,0.00,,,0.00,WUHU216HW,2013-08-02 19:53:00,
2013-08-02 15:58:00,81.4,67.5,30.07,NE,45,0.0,1.6,63,0.00,,,0.00,WUHU216HW,2013-08-02 19:58:00,
2013-08-02 16:03:00,81.4,67.5,30.07,WNW,293,0.4,1.8,63,0.00,,,0.00,WUHU216HW,2013-08-02 20:03:00,
2013-08-02 16:08:00,81.7,67.9,30.07,WNW,293,0.2,1.8,63,0.00,,,0.00,WUHU216HW,2013-08-02 20:08:00,
2013-08-02 16:13:00,81.9,67.2,30.06,West,270,0.0,1.6,61,0.00,,,0.00,WUHU216HW,2013-08-02 20:13:00,
2013-08-02 16:18:00,81.9,66.2,30.06,WNW,293,1.1,1.6,59,0.00,,,0.00,WUHU216HW,2013-08-02 20:18:00,
2013-08-02 16:23:00,81.9,66.2,30.06,NNW,338,0.0,1.6,59,0.00,,,0.00,WUHU216HW,2013-08-02 20:23:00,
2013-08-02 16:28:00,81.7,66.0,30.06,NW,315,0.2,1.3,59,0.00,,,0.00,WUHU216HW,2013-08-02 20:28:00,
2013-08-02 16:33:00,81.5,66.3,30.07,NW,315,0.4,1.1,60,0.00,,,0.00,WUHU216HW,2013-08-02 20:33:00,
2013-08-02 16:38:00,81.4,66.2,30.06,NNW,338,0.0,1.1,60,0.00,,,0.00,WUHU216HW,2013-08-02 20:38:00,
2013-08-02 16:43:00,81.4,66.2,30.06,NW,315,0.4,1.3,60,0.00,,,0.00,WUHU216HW,2013-08-02 20:43:00,
2013-08-02 16:48:00,81.5,66.3,30.06,NW,315,0.0,1.3,60,0.00,,,0.00,WUHU216HW,2013-08-02 20:48:00,
2013-08-02 16:53:00,81.5,66.8,30.07,NNW,338,0.4,1.1,61,0.00,,,0.00,WUHU216HW,2013-08-02 20:53:00,
2013-08-02 16:58:00,81.4,66.6,30.06,NNW,338,0.0,0.4,61,0.00,,,0.00,WUHU216HW,2013-08-02 20:58:00,
2013-08-02 17:03:00,81.4,66.2,30.06,NNW,338,0.0,0.4,60,0.00,,,0.00,WUHU216HW,2013-08-02 21:03:00,
2013-08-02 17:08:00,81.2,66.0,30.06,WNW,293,0.0,0.9,60,0.00,,,0.00,WUHU216HW,2013-08-02 21:08:00,
2013-08-02 17:13:00,81.0,65.9,30.06,North,0,0.0,1.8,60,0.00,,,0.00,WUHU216HW,2013-08-02 21:13:00,
2013-08-02 17:18:00,80.8,65.7,30.06,North,0,0.4,1.8,60,0.00,,,0.00,WUHU216HW,2013-08-02 21:18:00,
2013-08-02 17:23:00,80.6,66.0,30.06,NNW,338,0.0,1.1,61,0.00,,,0.00,WUHU216HW,2013-08-02 21:23:00,
2013-08-02 17:28:00,80.6,66.0,30.06,WNW,293,0.0,0.7,61,0.00,,,0.00,WUHU216HW,2013-08-02 21:28:00,
2013-08-02 17:33:00,80.3,66.1,30.05,WNW,293,0.0,0.7,62,0.00,,,0.00,WUHU216HW,2013-08-02 21:33:00,
2013-08-02 17:38:00,80.1,65.9,30.05,WNW,293,0.0,0.0,62,0.00,,,0.00,WUHU216HW,2013-08-02 21:38:00,
2013-08-02 17:43:00,80.1,66.3,30.06,NW,315,0.0,0.4,63,0.00,,,0.00,WUHU216HW,2013-08-02 21:43:00,
2013-08-02 17:48:00,79.9,66.6,30.06,North,0,0.0,1.3,64,0.00,,,0.00,WUHU216HW,2013-08-02 21:48:00,
2013-08-02 17:53:00,79.9,66.6,30.05,North,0,0.0,1.3,64,0.00,,,0.00,WUHU216HW,2013-08-02 21:53:00,
2013-08-02 17:58:00,79.7,66.9,30.04,North,0,0.0,0.0,65,0.00,,,0.00,WUHU216HW,2013-08-02 21:58:00,
2013-08-02 18:03:00,79.6,66.8,30.04,North,0,0.0,0.0,65,0.00,,,0.00,WUHU216HW,2013-08-02 22:03:00,
2013-08-02 18:08:00,79.4,67.1,30.05,North,0,0.0,0.0,66,0.00,,,0.00,WUHU216HW,2013-08-02 22:08:00,
2013-08-02 18:13:00,79.0,66.7,30.05,North,0,0.0,0.0,66,0.00,,,0.00,WUHU216HW,2013-08-02 22:13:00,
2013-08-02 18:18:00,78.8,67.0,30.04,North,0,0.0,0.0,67,0.00,,,0.00,WUHU216HW,2013-08-02 22:18:00,
2013-08-02 18:23:00,78.7,66.8,30.04,North,0,0.0,0.4,67,0.00,,,0.00,WUHU216HW,2013-08-02 22:23:00,
2013-08-02 18:28:00,78.5,67.1,30.04,North,0,0.0,0.4,68,0.00,,,0.00,WUHU216HW,2013-08-02 22:28:00,
2013-08-02 18:33:00,78.1,66.7,30.05,North,0,0.0,0.0,68,0.00,,,0.00,WUHU216HW,2013-08-02 22:33:00,
2013-08-02 18:38:00,77.9,66.5,30.04,North,0,0.0,0.0,68,0.00,,,0.00,WUHU216HW,2013-08-02 22:38:00,
2013-08-02 18:43:00,77.8,66.8,30.04,North,0,0.0,0.0,69,0.00,,,0.00,WUHU216HW,2013-08-02 22:43:00,
2013-08-02 18:48:00,77.6,66.6,30.04,North,0,0.0,0.2,69,0.00,,,0.00,WUHU216HW,2013-08-02 22:48:00,
2013-08-02 18:53:00,77.4,66.5,30.04,North,0,0.0,0.2,69,0.00,,,0.00,WUHU216HW,2013-08-02 22:53:00,
2013-08-02 18:58:00,77.4,66.5,30.04,North,0,0.0,0.0,69,0.00,,,0.00,WUHU216HW,2013-08-02 22:58:00,
2013-08-02 19:03:00,77.2,66.8,30.04,North,0,0.0,0.0,70,0.00,,,0.00,WUHU216HW,2013-08-02 23:03:00,
2013-08-02 19:08:00,77.0,66.6,30.04,North,0,0.0,0.0,70,0.00,,,0.00,WUHU216HW,2013-08-02 23:08:00,
2013-08-02 19:13:00,77.0,67.0,30.05,North,0,0.0,0.0,71,0.00,,,0.00,WUHU216HW,2013-08-02 23:13:00,
2013-08-02 19:18:00,76.7,66.6,30.05,North,0,0.0,0.0,71,0.00,,,0.00,WUHU216HW,2013-08-02 23:18:00,
2013-08-02 19:23:00,76.7,66.6,30.05,North,0,0.0,0.0,71,0.00,,,0.00,WUHU216HW,2013-08-02 23:23:00,
2013-08-02 19:28:00,76.5,66.4,30.05,North,0,0.0,0.0,71,0.00,,,0.00,WUHU216HW,2013-08-02 23:28:00,
2013-08-02 19:33:00,76.3,66.2,30.05,North,0,0.0,0.0,71,0.00,,,0.00,WUHU216HW,2013-08-02 23:33:00,
2013-08-02 19:38:00,76.1,66.1,30.05,North,0,0.0,0.0,71,0.00,,,0.00,WUHU216HW,2013-08-02 23:38:00,
2013-08-02 19:43:00,76.1,66.5,30.05,North,0,0.0,0.0,72,0.00,,,0.00,WUHU216HW,2013-08-02 23:43:00,
2013-08-02 19:48:00,76.0,66.3,30.05,North,0,0.0,0.0,72,0.00,,,0.00,WUHU216HW,2013-08-02 23:48:00,
2013-08-02 19:53:00,76.0,66.3,30.05,North,0,0.0,0.0,72,0.00,,,0.00,WUHU216HW,2013-08-02 23:53:00,
2013-08-02 19:58:00,75.8,66.2,30.05,North,0,0.0,0.0,72,0.00,,,0.00,WUHU216HW,2013-08-02 23:58:00,
2013-08-02 20:03:00,75.8,66.2,30.05,North,0,0.0,0.0,72,0.00,,,0.00,WUHU216HW,2013-08-03 00:03:00,
2013-08-02 20:08:00,75.6,66.0,30.05,North,0,0.0,0.0,72,0.00,,,0.00,WUHU216HW,2013-08-03 00:08:00,
2013-08-02 20:13:00,75.6,66.0,30.05,North,0,0.0,0.0,72,0.00,,,0.00,WUHU216HW,2013-08-03 00:13:00,
2013-08-02 20:18:00,75.6,66.0,30.05,North,0,0.0,0.0,72,0.00,,,0.00,WUHU216HW,2013-08-03 00:18:00,
2013-08-02 20:23:00,75.4,65.8,30.05,North,0,0.0,0.0,72,0.00,,,0.00,WUHU216HW,2013-08-03 00:23:00,
2013-08-02 20:28:00,75.4,66.2,30.05,North,0,0.0,0.0,73,0.00,,,0.00,WUHU216HW,2013-08-03 00:28:00,
2013-08-02 20:33:00,75.2,66.0,30.05,North,0,0.0,0.0,73,0.00,,,0.00,WUHU216HW,2013-08-03 00:33:00,
2013-08-02 20:38:00,75.2,66.0,30.05,North,0,0.0,0.0,73,0.00,,,0.00,WUHU216HW,2013-08-03 00:38:00,
2013-08-02 20:43:00,74.9,65.6,30.05,North,0,0.0,0.0,73,0.00,,,0.00,WUHU216HW,2013-08-03 00:43:00,
2013-08-02 20:48:00,74.9,65.6,30.05,North,0,0.0,0.0,73,0.00,,,0.00,WUHU216HW,2013-08-03 00:48:00,
2013-08-02 20:53:00,74.7,65.5,30.06,North,0,0.0,0.0,73,0.00,,,0.00,WUHU216HW,2013-08-03 00:53:00,
2013-08-02 20:58:00,74.7,65.5,30.06,North,0,0.0,0.0,73,0.00,,,0.00,WUHU216HW,2013-08-03 00:58:00,
2013-08-02 21:03:00,74.7,65.9,30.05,NE,45,0.0,0.0,74,0.00,,,0.00,WUHU216HW,2013-08-03 01:03:00,
2013-08-02 21:08:00,74.5,65.7,30.05,NE,45,0.0,0.7,74,0.00,,,0.00,WUHU216HW,2013-08-03 01:08:00,
2013-08-02 21:13:00,74.5,65.7,30.06,NE,45,0.0,0.7,74,0.00,,,0.00,WUHU216HW,2013-08-03 01:13:00,
2013-08-02 21:18:00,74.5,65.7,30.06,NE,45,0.0,0.0,74,0.00,,,0.00,WUHU216HW,2013-08-03 01:18:00,
2013-08-02 21:23:00,74.5,65.7,30.06,NE,45,0.0,0.0,74,0.00,,,0.00,WUHU216HW,2013-08-03 01:23:00,
2013-08-02 21:28:00,74.3,65.9,30.06,NE,45,0.0,0.0,75,0.00,,,0.00,WUHU216HW,2013-08-03 01:28:00,
2013-08-02 21:33:00,74.3,65.9,30.06,NE,45,0.0,0.0,75,0.00,,,0.00,WUHU216HW,2013-08-03 01:33:00,
2013-08-02 21:38:00,74.2,65.3,30.06,ENE,68,0.0,0.0,74,0.00,,,0.00,WUHU216HW,2013-08-03 01:38:00,
2013-08-02 21:43:00,74.2,65.3,30.06,ENE,68,0.0,0.0,74,0.00,,,0.00,WUHU216HW,2013-08-03 01:43:00,
2013-08-02 21:48:00,74.0,65.2,30.06,ENE,68,0.0,0.0,74,0.00,,,0.00,WUHU216HW,2013-08-03 01:48:00,
2013-08-02 21:53:00,74.0,65.2,30.06,ENE,68,0.0,0.0,74,0.00,,,0.00,WUHU216HW,2013-08-03 01:53:00,
2013-08-02 21:58:00,73.8,65.4,30.06,ENE,68,0.0,0.0,75,0.00,,,0.00,WUHU216HW,2013-08-03 01:58:00,
2013-08-02 22:03:00,73.8,65.1,30.06,ENE,68,0.0,0.0,74,0.00,,,0.00,WUHU216HW,2013-08-03 02:03:00,
2013-08-02 22:08:00,73.8,65.4,30.06,ENE,68,0.0,0.0,75,0.00,,,0.00,WUHU216HW,2013-08-03 02:08:00,
2013-08-02 22:13:00,73.6,64.9,30.07,ENE,68,0.0,0.0,74,0.00,,,0.00,WUHU216HW,2013-08-03 02:13:00,
2013-08-02 22:18:00,73.4,64.4,30.07,ENE,68,0.0,0.0,73,0.00,,,0.00,WUHU216HW,2013-08-03 02:18:00,
2013-08-02 22:23:00,73.4,64.4,30.07,ENE,68,0.0,0.0,73,0.00,,,0.00,WUHU216HW,2013-08-03 02:23:00,
2013-08-02 22:28:00,73.3,64.5,30.07,ENE,68,0.0,0.0,74,0.00,,,0.00,WUHU216HW,2013-08-03 02:28:00,
2013-08-02 22:33:00,73.1,64.4,30.07,ENE,68,0.0,0.0,74,0.00,,,0.00,WUHU216HW,2013-08-03 02:33:00,
2013-08-02 22:38:00,72.9,64.2,30.07,ENE,68,0.0,0.0,74,0.00,,,0.00,WUHU216HW,2013-08-03 02:38:00,
2013-08-02 22:43:00,72.9,64.2,30.07,ENE,68,0.0,0.0,74,0.00,,,0.00,WUHU216HW,2013-08-03 02:43:00,
2013-08-02 22:48:00,72.7,64.0,30.07,ESE,113,0.7,0.9,74,0.00,,,0.00,WUHU216HW,2013-08-03 02:48:00,
2013-08-02 22:53:00,72.7,64.0,30.07,East,90,0.4,0.9,74,0.00,,,0.00,WUHU216HW,2013-08-03 02:53:00,
2013-08-02 22:58:00,72.5,63.8,30.07,East,90,0.4,1.1,74,0.00,,,0.00,WUHU216HW,2013-08-03 02:58:00,
2013-08-02 23:03:00,72.4,63.6,30.07,East,90,0.0,1.1,74,0.00,,,0.00,WUHU216HW,2013-08-03 03:03:00,
2013-08-02 23:08:00,72.4,64.0,30.07,East,90,0.0,0.4,75,0.00,,,0.00,WUHU216HW,2013-08-03 03:08:00,
2013-08-02 23:13:00,72.2,63.5,30.07,East,90,0.0,0.0,74,0.00,,,0.00,WUHU216HW,2013-08-03 03:13:00,
2013-08-02 23:18:00,72.2,63.5,30.07,East,90,0.0,0.0,74,0.00,,,0.00,WUHU216HW,2013-08-03 03:18:00,
2013-08-02 23:23:00,72.0,63.6,30.07,East,90,0.0,0.0,75,0.00,,,0.00,WUHU216HW,2013-08-03 03:23:00,
2013-08-02 23:28:00,72.0,63.6,30.07,East,90,0.4,0.4,75,0.00,,,0.00,WUHU216HW,2013-08-03 03:28:00,
2013-08-02 23:33:00,72.0,63.6,30.07,East,90,0.0,0.4,75,0.00,,,0.00,WUHU216HW,2013-08-03 03:33:00,
2013-08-02 23:38:00,71.8,63.5,30.07,East,90,0.2,0.2,75,0.00,,,0.00,WUHU216HW,2013-08-03 03:38:00,
2013-08-02 23:43:00,71.8,63.8,30.07,ESE,113,0.4,0.9,76,0.00,,,0.00,WUHU216HW,2013-08-03 03:43:00,
2013-08-02 23:48:00,71.8,63.8,30.06,East,90,0.4,0.9,76,0.00,,,0.00,WUHU216HW,2013-08-03 03:48:00,
2013-08-02 23:53:00,71.8,63.8,30.07,East,90,0.0,0.9,76,0.00,,,0.00,WUHU216HW,2013-08-03 03:53:00,
2013-08-02 23:58:00,71.8,64.2,30.07,East,90,0.0,0.4,77,0.00,,,0.00,WUHU216HW,2013-08-03 03:58:00,